Year,Month,Day,Hour,Minute,Value (Times are PST for temperature in C)
2019,08,05,00,00,18.10
2019,08,05,00,01,18.10
2019,08,05,00,02,18.10
2019,08,05,00,03,18.10
2019,08,05,00,04,18.20
2019,08,05,00,05,18.20
2019,08,05,00,06,18.20
2019,08,05,00,07,18.20
2019,08,05,00,08,18.20
2019,08,05,00,09,18.30
2019,08,05,00,10,18.30
2019,08,05,00,11,18.40
2019,08,05,00,12,18.50
2019,08,05,00,13,18.50
2019,08,05,00,14,18.50
2019,08,05,00,15,18.60
2019,08,05,00,16,18.60
2019,08,05,00,17,18.60
2019,08,05,00,18,18.60
2019,08,05,00,19,18.60
2019,08,05,00,20,18.70
2019,08,05,00,21,18.70
2019,08,05,00,22,18.70
2019,08,05,00,23,18.70
2019,08,05,00,24,18.70
2019,08,05,00,25,18.80
2019,08,05,00,26,18.80
2019,08,05,00,27,18.80
2019,08,05,00,28,18.90
2019,08,05,00,29,18.90
2019,08,05,00,30,19.00
2019,08,05,00,31,19.00
2019,08,05,00,32,19.00
2019,08,05,00,33,19.00
2019,08,05,00,34,19.00
2019,08,05,00,35,19.10
2019,08,05,00,36,19.20
2019,08,05,00,37,19.20
2019,08,05,00,38,19.30
2019,08,05,00,39,19.30
2019,08,05,00,40,19.20
2019,08,05,00,41,19.20
2019,08,05,00,42,19.20
2019,08,05,00,43,19.20
2019,08,05,00,44,19.20
2019,08,05,00,45,19.20
2019,08,05,00,46,19.30
2019,08,05,00,47,19.30
2019,08,05,00,48,19.20
2019,08,05,00,49,19.30
2019,08,05,00,50,19.30
2019,08,05,00,51,19.20
2019,08,05,00,52,19.20
2019,08,05,00,53,19.10
2019,08,05,00,54,19.10
2019,08,05,00,55,19.00
2019,08,05,00,56,19.00
2019,08,05,00,57,18.90
2019,08,05,00,58,18.90
2019,08,05,00,59,18.80
2019,08,05,01,00,18.80
2019,08,05,01,01,18.70
2019,08,05,01,02,18.70
2019,08,05,01,03,18.60
2019,08,05,01,04,18.60
2019,08,05,01,05,18.60
2019,08,05,01,06,18.60
2019,08,05,01,07,18.50
2019,08,05,01,08,18.50
2019,08,05,01,09,18.50
2019,08,05,01,10,18.40
2019,08,05,01,11,18.50
2019,08,05,01,12,18.40
2019,08,05,01,13,18.50
2019,08,05,01,14,18.50
2019,08,05,01,15,18.50
2019,08,05,01,16,18.50
2019,08,05,01,17,18.50
2019,08,05,01,18,18.40
2019,08,05,01,19,18.30
2019,08,05,01,20,18.20
2019,08,05,01,21,18.20
2019,08,05,01,22,18.10
2019,08,05,01,23,18.00
2019,08,05,01,24,17.90
2019,08,05,01,25,17.80
2019,08,05,01,26,17.80
2019,08,05,01,27,17.70
2019,08,05,01,28,17.60
2019,08,05,01,29,17.60
2019,08,05,01,30,17.50
2019,08,05,01,31,17.50
2019,08,05,01,32,17.40
2019,08,05,01,33,17.40
2019,08,05,01,34,17.40
2019,08,05,01,35,17.40
2019,08,05,01,36,17.30
2019,08,05,01,37,17.30
2019,08,05,01,38,17.30
2019,08,05,01,39,17.30
2019,08,05,01,40,17.20
2019,08,05,01,41,17.20
2019,08,05,01,42,17.20
2019,08,05,01,43,17.20
2019,08,05,01,44,17.20
2019,08,05,01,45,17.10
2019,08,05,01,46,17.10
2019,08,05,01,47,17.10
2019,08,05,01,48,17.10
2019,08,05,01,49,17.10
2019,08,05,01,50,17.10
2019,08,05,01,51,17.10
2019,08,05,01,52,17.10
2019,08,05,01,53,17.10
2019,08,05,01,54,17.10
2019,08,05,01,55,17.10
2019,08,05,01,56,17.10
2019,08,05,01,57,17.10
2019,08,05,01,58,17.10
2019,08,05,01,59,17.10
2019,08,05,02,00,17.10
2019,08,05,02,01,17.10
2019,08,05,02,02,17.10
2019,08,05,02,03,17.20
2019,08,05,02,04,17.20
2019,08,05,02,05,17.20
2019,08,05,02,06,17.20
2019,08,05,02,07,17.20
2019,08,05,02,08,17.20
2019,08,05,02,09,17.20
2019,08,05,02,10,17.20
2019,08,05,02,11,17.20
2019,08,05,02,12,17.20
2019,08,05,02,13,17.20
2019,08,05,02,14,17.20
2019,08,05,02,15,17.20
2019,08,05,02,16,17.20
2019,08,05,02,17,17.20
2019,08,05,02,18,17.20
2019,08,05,02,19,17.20
2019,08,05,02,20,17.30
2019,08,05,02,21,17.30
2019,08,05,02,22,17.30
2019,08,05,02,23,17.30
2019,08,05,02,24,17.30
2019,08,05,02,25,17.30
2019,08,05,02,26,17.30
2019,08,05,02,27,17.30
2019,08,05,02,28,17.30
2019,08,05,02,29,17.30
2019,08,05,02,30,17.30
2019,08,05,02,31,17.30
2019,08,05,02,32,17.30
2019,08,05,02,33,17.30
2019,08,05,02,34,17.30
2019,08,05,02,35,17.30
2019,08,05,02,36,17.30
2019,08,05,02,37,17.30
2019,08,05,02,38,17.30
2019,08,05,02,39,17.30
2019,08,05,02,40,17.30
2019,08,05,02,41,17.30
2019,08,05,02,42,17.30
2019,08,05,02,43,17.30
2019,08,05,02,44,17.30
2019,08,05,02,45,17.30
2019,08,05,02,46,17.20
2019,08,05,02,47,17.20
2019,08,05,02,48,17.20
2019,08,05,02,49,17.20
2019,08,05,02,50,17.20
2019,08,05,02,51,17.20
2019,08,05,02,52,17.20
2019,08,05,02,53,17.20
2019,08,05,02,54,17.20
2019,08,05,02,55,17.20
2019,08,05,02,56,17.20
2019,08,05,02,57,17.20
2019,08,05,02,58,17.10
2019,08,05,02,59,17.10
2019,08,05,03,00,17.10
2019,08,05,03,01,17.10
2019,08,05,03,02,17.00
2019,08,05,03,03,17.00
2019,08,05,03,04,16.90
2019,08,05,03,05,16.90
2019,08,05,03,06,16.90
2019,08,05,03,07,16.90
2019,08,05,03,08,16.80
2019,08,05,03,09,16.80
2019,08,05,03,10,16.80
2019,08,05,03,11,16.80
2019,08,05,03,12,16.80
2019,08,05,03,13,16.80
2019,08,05,03,14,16.80
2019,08,05,03,15,16.80
2019,08,05,03,16,16.80
2019,08,05,03,17,16.80
2019,08,05,03,18,16.80
2019,08,05,03,19,16.80
2019,08,05,03,20,16.80
2019,08,05,03,21,16.80
2019,08,05,03,22,16.80
2019,08,05,03,23,16.80
2019,08,05,03,24,16.80
2019,08,05,03,25,16.80
2019,08,05,03,26,16.80
2019,08,05,03,27,16.80
2019,08,05,03,28,16.80
2019,08,05,03,29,16.70
2019,08,05,03,30,16.70
2019,08,05,03,31,16.70
2019,08,05,03,32,16.70
2019,08,05,03,33,16.70
2019,08,05,03,34,16.70
2019,08,05,03,35,16.70
2019,08,05,03,36,16.70
2019,08,05,03,37,16.60
2019,08,05,03,38,16.60
2019,08,05,03,39,16.60
2019,08,05,03,40,16.60
2019,08,05,03,41,16.60
2019,08,05,03,42,16.60
2019,08,05,03,43,16.60
2019,08,05,03,44,16.60
2019,08,05,03,45,16.60
2019,08,05,03,46,16.60
2019,08,05,03,47,16.60
2019,08,05,03,48,16.60
2019,08,05,03,49,16.60
2019,08,05,03,50,16.60
2019,08,05,03,51,16.60
2019,08,05,03,52,16.60
2019,08,05,03,53,16.60
2019,08,05,03,54,16.60
2019,08,05,03,55,16.50
2019,08,05,03,56,16.50
2019,08,05,03,57,16.50
2019,08,05,03,58,16.50
2019,08,05,03,59,16.50
2019,08,05,04,00,16.40
2019,08,05,04,01,16.40
2019,08,05,04,02,16.40
2019,08,05,04,03,16.40
2019,08,05,04,04,16.40
2019,08,05,04,05,16.40
2019,08,05,04,06,16.40
2019,08,05,04,07,16.40
2019,08,05,04,08,16.30
2019,08,05,04,09,16.30
2019,08,05,04,10,16.30
2019,08,05,04,11,16.30
2019,08,05,04,12,16.30
2019,08,05,04,13,16.30
2019,08,05,04,14,16.30
2019,08,05,04,15,16.30
2019,08,05,04,16,16.30
2019,08,05,04,17,16.30
2019,08,05,04,18,16.30
2019,08,05,04,19,16.40
2019,08,05,04,20,16.40
2019,08,05,04,21,16.30
2019,08,05,04,22,16.30
2019,08,05,04,23,16.30
2019,08,05,04,24,16.30
2019,08,05,04,25,16.30
2019,08,05,04,26,16.30
2019,08,05,04,27,16.30
2019,08,05,04,28,16.30
2019,08,05,04,29,16.30
2019,08,05,04,30,16.30
2019,08,05,04,31,16.30
2019,08,05,04,32,16.20
2019,08,05,04,33,16.30
2019,08,05,04,34,16.30
2019,08,05,04,35,16.30
2019,08,05,04,36,16.30
2019,08,05,04,37,16.30
2019,08,05,04,38,16.40
2019,08,05,04,39,16.50
2019,08,05,04,40,16.60
2019,08,05,04,41,16.60
2019,08,05,04,42,16.70
2019,08,05,04,43,16.70
2019,08,05,04,44,16.60
2019,08,05,04,45,16.60
2019,08,05,04,46,16.60
2019,08,05,04,47,16.60
2019,08,05,04,48,16.50
2019,08,05,04,49,16.50
2019,08,05,04,50,16.50
2019,08,05,04,51,16.40
2019,08,05,04,52,16.40
2019,08,05,04,53,16.40
2019,08,05,04,54,16.40
2019,08,05,04,55,16.40
2019,08,05,04,56,16.30
2019,08,05,04,57,16.30
2019,08,05,04,58,16.30
2019,08,05,04,59,16.30
2019,08,05,05,00,16.30
2019,08,05,05,01,16.30
2019,08,05,05,02,16.20
2019,08,05,05,03,16.20
2019,08,05,05,04,16.20
2019,08,05,05,05,16.20
2019,08,05,05,06,16.20
2019,08,05,05,07,16.20
2019,08,05,05,08,16.20
2019,08,05,05,09,16.20
2019,08,05,05,10,16.20
2019,08,05,05,11,16.10
2019,08,05,05,12,16.10
2019,08,05,05,13,16.10
2019,08,05,05,14,16.10
2019,08,05,05,15,16.00
2019,08,05,05,16,16.00
2019,08,05,05,17,16.00
2019,08,05,05,18,16.00
2019,08,05,05,19,16.00
2019,08,05,05,20,16.00
2019,08,05,05,21,15.90
2019,08,05,05,22,15.90
2019,08,05,05,23,15.90
2019,08,05,05,24,15.90
2019,08,05,05,25,15.90
2019,08,05,05,26,15.90
2019,08,05,05,27,16.00
2019,08,05,05,28,16.00
2019,08,05,05,29,16.00
2019,08,05,05,30,16.00
2019,08,05,05,31,16.00
2019,08,05,05,32,16.00
2019,08,05,05,33,16.00
2019,08,05,05,34,16.10
2019,08,05,05,35,16.10
2019,08,05,05,36,16.10
2019,08,05,05,37,16.10
2019,08,05,05,38,16.10
2019,08,05,05,39,16.10
2019,08,05,05,40,16.10
2019,08,05,05,41,16.10
2019,08,05,05,42,16.10
2019,08,05,05,43,16.20
2019,08,05,05,44,16.20
2019,08,05,05,45,16.20
2019,08,05,05,46,16.20
2019,08,05,05,47,16.20
2019,08,05,05,48,16.20
2019,08,05,05,49,16.20
2019,08,05,05,50,16.20
2019,08,05,05,51,16.20
2019,08,05,05,52,16.20
2019,08,05,05,53,16.10
2019,08,05,05,54,16.10
2019,08,05,05,55,16.10
2019,08,05,05,56,16.00
2019,08,05,05,57,16.00
2019,08,05,05,58,16.10
2019,08,05,05,59,16.10
2019,08,05,06,00,16.10
2019,08,05,06,01,16.10
2019,08,05,06,02,16.10
2019,08,05,06,03,16.10
2019,08,05,06,04,16.10
2019,08,05,06,05,16.10
2019,08,05,06,06,16.10
2019,08,05,06,07,16.10
2019,08,05,06,08,16.10
2019,08,05,06,09,16.20
2019,08,05,06,10,16.20
2019,08,05,06,11,16.20
2019,08,05,06,12,16.20
2019,08,05,06,13,16.20
2019,08,05,06,14,16.20
2019,08,05,06,15,16.20
2019,08,05,06,16,16.20
2019,08,05,06,17,16.30
2019,08,05,06,18,16.30
2019,08,05,06,19,16.30
2019,08,05,06,20,16.30
2019,08,05,06,21,16.30
2019,08,05,06,22,16.30
2019,08,05,06,23,16.40
2019,08,05,06,24,16.40
2019,08,05,06,25,16.40
2019,08,05,06,26,16.40
2019,08,05,06,27,16.40
2019,08,05,06,28,16.40
2019,08,05,06,29,16.40
2019,08,05,06,30,16.40
2019,08,05,06,31,16.30
2019,08,05,06,32,16.30
2019,08,05,06,33,16.30
2019,08,05,06,34,16.40
2019,08,05,06,35,16.40
2019,08,05,06,36,16.40
2019,08,05,06,37,16.40
2019,08,05,06,38,16.40
2019,08,05,06,39,16.50
2019,08,05,06,40,16.50
2019,08,05,06,41,16.50
2019,08,05,06,42,16.50
2019,08,05,06,43,16.50
2019,08,05,06,44,16.60
2019,08,05,06,45,16.60
2019,08,05,06,46,16.60
2019,08,05,06,47,16.70
2019,08,05,06,48,16.70
2019,08,05,06,49,16.70
2019,08,05,06,50,16.80
2019,08,05,06,51,16.80
2019,08,05,06,52,16.80
2019,08,05,06,53,16.80
2019,08,05,06,54,16.90
2019,08,05,06,55,16.90
2019,08,05,06,56,16.90
2019,08,05,06,57,16.90
2019,08,05,06,58,16.90
2019,08,05,06,59,16.90
2019,08,05,07,00,16.90
2019,08,05,07,01,17.00
2019,08,05,07,02,17.00
2019,08,05,07,03,17.00
2019,08,05,07,04,17.00
2019,08,05,07,05,17.10
2019,08,05,07,06,17.00
2019,08,05,07,07,17.10
2019,08,05,07,08,17.10
2019,08,05,07,09,17.10
2019,08,05,07,10,17.10
2019,08,05,07,11,17.10
2019,08,05,07,12,17.10
2019,08,05,07,13,17.10
2019,08,05,07,14,17.20
2019,08,05,07,15,17.20
2019,08,05,07,16,17.20
2019,08,05,07,17,17.20
2019,08,05,07,18,17.30
2019,08,05,07,19,17.30
2019,08,05,07,20,17.30
2019,08,05,07,21,17.40
2019,08,05,07,22,17.40
2019,08,05,07,23,17.40
2019,08,05,07,24,17.50
2019,08,05,07,25,17.60
2019,08,05,07,26,17.60
2019,08,05,07,27,17.60
2019,08,05,07,28,17.70
2019,08,05,07,29,17.70
2019,08,05,07,30,17.80
2019,08,05,07,31,17.80
2019,08,05,07,32,17.90
2019,08,05,07,33,17.90
2019,08,05,07,34,18.00
2019,08,05,07,35,18.10
2019,08,05,07,36,18.10
2019,08,05,07,37,18.20
2019,08,05,07,38,18.20
2019,08,05,07,39,18.30
2019,08,05,07,40,18.40
2019,08,05,07,41,18.50
2019,08,05,07,42,18.60
2019,08,05,07,43,18.60
2019,08,05,07,44,18.70
2019,08,05,07,45,18.80
2019,08,05,07,46,18.90
2019,08,05,07,47,18.90
2019,08,05,07,48,19.00
2019,08,05,07,49,19.00
2019,08,05,07,50,19.10
2019,08,05,07,51,19.20
2019,08,05,07,52,19.20
2019,08,05,07,53,19.30
2019,08,05,07,54,19.40
2019,08,05,07,55,19.40
2019,08,05,07,56,19.50
2019,08,05,07,57,19.50
2019,08,05,07,58,19.50
2019,08,05,07,59,19.60
2019,08,05,08,00,19.60
2019,08,05,08,01,19.60
2019,08,05,08,02,19.70
2019,08,05,08,03,19.70
2019,08,05,08,04,19.70
2019,08,05,08,05,19.80
2019,08,05,08,06,19.80
2019,08,05,08,07,19.90
2019,08,05,08,08,20.00
2019,08,05,08,09,20.10
2019,08,05,08,10,20.20
2019,08,05,08,11,20.20
2019,08,05,08,12,20.30
2019,08,05,08,13,20.40
2019,08,05,08,14,20.50
2019,08,05,08,15,20.60
2019,08,05,08,16,20.70
2019,08,05,08,17,20.80
2019,08,05,08,18,20.90
2019,08,05,08,19,21.00
2019,08,05,08,20,21.10
2019,08,05,08,21,21.20
2019,08,05,08,22,21.20
2019,08,05,08,23,21.30
2019,08,05,08,24,21.40
2019,08,05,08,25,21.40
2019,08,05,08,26,21.50
2019,08,05,08,27,21.60
2019,08,05,08,28,21.60
2019,08,05,08,29,21.60
2019,08,05,08,30,21.50
2019,08,05,08,31,21.50
2019,08,05,08,32,21.40
2019,08,05,08,33,21.40
2019,08,05,08,34,21.40
2019,08,05,08,35,21.40
2019,08,05,08,36,21.30
2019,08,05,08,37,21.30
2019,08,05,08,38,21.40
2019,08,05,08,39,21.40
2019,08,05,08,40,21.40
2019,08,05,08,41,21.50
2019,08,05,08,42,21.50
2019,08,05,08,43,21.60
2019,08,05,08,44,21.60
2019,08,05,08,45,21.70
2019,08,05,08,46,21.70
2019,08,05,08,47,21.70
2019,08,05,08,48,21.70
2019,08,05,08,49,21.80
2019,08,05,08,50,21.80
2019,08,05,08,51,21.80
2019,08,05,08,52,21.80
2019,08,05,08,53,21.80
2019,08,05,08,54,21.80
2019,08,05,08,55,21.80
2019,08,05,08,56,21.80
2019,08,05,08,57,21.80
2019,08,05,08,58,21.80
2019,08,05,08,59,21.80
2019,08,05,09,00,21.80
2019,08,05,09,01,21.80
2019,08,05,09,02,21.80
2019,08,05,09,03,21.80
2019,08,05,09,04,21.90
2019,08,05,09,05,21.90
2019,08,05,09,06,21.80
2019,08,05,09,07,21.80
2019,08,05,09,08,21.80
2019,08,05,09,09,21.80
2019,08,05,09,10,21.80
2019,08,05,09,11,21.80
2019,08,05,09,12,21.80
2019,08,05,09,13,21.80
2019,08,05,09,14,21.70
2019,08,05,09,15,21.70
2019,08,05,09,16,21.70
2019,08,05,09,17,21.60
2019,08,05,09,18,21.50
2019,08,05,09,19,21.50
2019,08,05,09,20,21.50
2019,08,05,09,21,21.40
2019,08,05,09,22,21.40
2019,08,05,09,23,21.40
2019,08,05,09,24,21.50
2019,08,05,09,25,21.50
2019,08,05,09,26,21.60
2019,08,05,09,27,21.70
2019,08,05,09,28,21.70
2019,08,05,09,29,21.70
2019,08,05,09,30,21.70
2019,08,05,09,31,21.70
2019,08,05,09,32,21.70
2019,08,05,09,33,21.70
2019,08,05,09,34,21.80
2019,08,05,09,35,21.80
2019,08,05,09,36,21.80
2019,08,05,09,37,21.80
2019,08,05,09,38,21.80
2019,08,05,09,39,21.80
2019,08,05,09,40,21.70
2019,08,05,09,41,21.70
2019,08,05,09,42,21.70
2019,08,05,09,43,21.70
2019,08,05,09,44,21.70
2019,08,05,09,45,21.70
2019,08,05,09,46,21.80
2019,08,05,09,47,21.90
2019,08,05,09,48,21.90
2019,08,05,09,49,22.00
2019,08,05,09,50,22.00
2019,08,05,09,51,22.00
2019,08,05,09,52,22.10
2019,08,05,09,53,22.10
2019,08,05,09,54,22.20
2019,08,05,09,55,22.20
2019,08,05,09,56,22.30
2019,08,05,09,57,22.30
2019,08,05,09,58,22.30
2019,08,05,09,59,22.30
2019,08,05,10,00,22.30
2019,08,05,10,01,22.30
2019,08,05,10,02,22.30
2019,08,05,10,03,22.30
2019,08,05,10,04,22.40
2019,08,05,10,05,22.40
2019,08,05,10,06,22.40
2019,08,05,10,07,22.40
2019,08,05,10,08,22.40
2019,08,05,10,09,22.40
2019,08,05,10,10,22.30
2019,08,05,10,11,22.20
2019,08,05,10,12,22.10
2019,08,05,10,13,22.10
2019,08,05,10,14,22.10
2019,08,05,10,15,22.20
2019,08,05,10,16,22.20
2019,08,05,10,17,22.20
2019,08,05,10,18,22.30
2019,08,05,10,19,22.40
2019,08,05,10,20,22.50
2019,08,05,10,21,22.60
2019,08,05,10,22,22.60
2019,08,05,10,23,22.60
2019,08,05,10,24,22.60
2019,08,05,10,25,22.60
2019,08,05,10,26,22.50
2019,08,05,10,27,22.60
2019,08,05,10,28,22.60
2019,08,05,10,29,22.50
2019,08,05,10,30,22.50
2019,08,05,10,31,22.40
2019,08,05,10,32,22.40
2019,08,05,10,33,22.50
2019,08,05,10,34,22.50
2019,08,05,10,35,22.60
2019,08,05,10,36,22.60
2019,08,05,10,37,22.60
2019,08,05,10,38,22.70
2019,08,05,10,39,22.70
2019,08,05,10,40,22.80
2019,08,05,10,41,22.80
2019,08,05,10,42,22.90
2019,08,05,10,43,23.00
2019,08,05,10,44,23.00
2019,08,05,10,45,23.10
2019,08,05,10,46,23.20
2019,08,05,10,47,23.30
2019,08,05,10,48,23.30
2019,08,05,10,49,23.40
2019,08,05,10,50,23.30
2019,08,05,10,51,23.30
2019,08,05,10,52,23.30
2019,08,05,10,53,23.20
2019,08,05,10,54,23.10
2019,08,05,10,55,23.10
2019,08,05,10,56,23.10
2019,08,05,10,57,23.10
2019,08,05,10,58,23.10
2019,08,05,10,59,23.20
2019,08,05,11,00,23.20
2019,08,05,11,01,23.30
2019,08,05,11,02,23.40
2019,08,05,11,03,23.60
2019,08,05,11,04,23.70
2019,08,05,11,05,23.80
2019,08,05,11,06,23.80
2019,08,05,11,07,23.80
2019,08,05,11,08,23.80
2019,08,05,11,09,23.80
2019,08,05,11,10,23.80
2019,08,05,11,11,23.80
2019,08,05,11,12,23.80
2019,08,05,11,13,23.80
2019,08,05,11,14,23.80
2019,08,05,11,15,23.80
2019,08,05,11,16,23.90
2019,08,05,11,17,23.90
2019,08,05,11,18,24.00
2019,08,05,11,19,24.10
2019,08,05,11,20,24.20
2019,08,05,11,21,24.30
2019,08,05,11,22,24.40
2019,08,05,11,23,24.50
2019,08,05,11,24,24.50
2019,08,05,11,25,24.50
2019,08,05,11,26,24.60
2019,08,05,11,27,24.60
2019,08,05,11,28,24.70
2019,08,05,11,29,24.80
2019,08,05,11,30,24.80
2019,08,05,11,31,24.80
2019,08,05,11,32,24.80
2019,08,05,11,33,24.80
2019,08,05,11,34,24.80
2019,08,05,11,35,24.70
2019,08,05,11,36,24.60
2019,08,05,11,37,24.60
2019,08,05,11,38,24.50
2019,08,05,11,39,24.60
2019,08,05,11,40,24.60
2019,08,05,11,41,24.40
2019,08,05,11,42,24.30
2019,08,05,11,43,24.20
2019,08,05,11,44,24.20
2019,08,05,11,45,24.10
2019,08,05,11,46,24.00
2019,08,05,11,47,23.80
2019,08,05,11,48,23.70
2019,08,05,11,49,23.60
2019,08,05,11,50,23.60
2019,08,05,11,51,23.60
2019,08,05,11,52,23.60
2019,08,05,11,53,23.70
2019,08,05,11,54,23.80
2019,08,05,11,55,23.90
2019,08,05,11,56,24.00
2019,08,05,11,57,24.00
2019,08,05,11,58,24.10
2019,08,05,11,59,24.20
2019,08,05,12,00,24.20
2019,08,05,12,01,24.20
2019,08,05,12,02,24.20
2019,08,05,12,03,24.10
2019,08,05,12,04,24.00
2019,08,05,12,05,23.80
2019,08,05,12,06,23.60
2019,08,05,12,07,23.40
2019,08,05,12,08,23.20
2019,08,05,12,09,23.10
2019,08,05,12,10,23.00
2019,08,05,12,11,23.10
2019,08,05,12,12,23.10
2019,08,05,12,13,23.10
2019,08,05,12,14,23.20
2019,08,05,12,15,23.20
2019,08,05,12,16,23.20
2019,08,05,12,17,23.30
2019,08,05,12,18,23.40
2019,08,05,12,19,23.50
2019,08,05,12,20,23.70
2019,08,05,12,21,23.80
2019,08,05,12,22,23.90
2019,08,05,12,23,24.00
2019,08,05,12,24,24.00
2019,08,05,12,25,24.10
2019,08,05,12,26,24.00
2019,08,05,12,27,24.00
2019,08,05,12,28,24.00
2019,08,05,12,29,24.00
2019,08,05,12,30,23.90
2019,08,05,12,31,23.90
2019,08,05,12,32,23.90
2019,08,05,12,33,23.90
2019,08,05,12,34,23.80
2019,08,05,12,35,23.70
2019,08,05,12,36,23.80
2019,08,05,12,37,23.80
2019,08,05,12,38,23.90
2019,08,05,12,39,24.00
2019,08,05,12,40,24.00
2019,08,05,12,41,24.10
2019,08,05,12,42,24.10
2019,08,05,12,43,24.20
2019,08,05,12,44,24.30
2019,08,05,12,45,24.40
2019,08,05,12,46,24.50
2019,08,05,12,47,24.60
2019,08,05,12,48,24.70
2019,08,05,12,49,24.80
2019,08,05,12,50,24.70
2019,08,05,12,51,24.60
2019,08,05,12,52,24.60
2019,08,05,12,53,24.60
2019,08,05,12,54,24.60
2019,08,05,12,55,24.60
2019,08,05,12,56,24.70
2019,08,05,12,57,24.80
2019,08,05,12,58,24.90
2019,08,05,12,59,25.00
2019,08,05,13,00,24.90
2019,08,05,13,01,25.00
2019,08,05,13,02,25.00
2019,08,05,13,03,25.00
2019,08,05,13,04,25.10
2019,08,05,13,05,25.20
2019,08,05,13,06,25.30
2019,08,05,13,07,25.40
2019,08,05,13,08,25.50
2019,08,05,13,09,25.60
2019,08,05,13,10,25.70
2019,08,05,13,11,25.70
2019,08,05,13,12,25.70
2019,08,05,13,13,25.70
2019,08,05,13,14,25.70
2019,08,05,13,15,25.70
2019,08,05,13,16,25.70
2019,08,05,13,17,25.80
2019,08,05,13,18,25.80
2019,08,05,13,19,25.80
2019,08,05,13,20,25.90
2019,08,05,13,21,26.00
2019,08,05,13,22,26.10
2019,08,05,13,23,26.20
2019,08,05,13,24,26.30
2019,08,05,13,25,26.30
2019,08,05,13,26,26.40
2019,08,05,13,27,26.40
2019,08,05,13,28,26.40
2019,08,05,13,29,26.40
2019,08,05,13,30,26.50
2019,08,05,13,31,26.60
2019,08,05,13,32,26.60
2019,08,05,13,33,26.70
2019,08,05,13,34,26.70
2019,08,05,13,35,26.80
2019,08,05,13,36,26.80
2019,08,05,13,37,26.70
2019,08,05,13,38,26.50
2019,08,05,13,39,26.40
2019,08,05,13,40,26.30
2019,08,05,13,41,26.20
2019,08,05,13,42,26.10
2019,08,05,13,43,26.10
2019,08,05,13,44,26.00
2019,08,05,13,45,26.00
2019,08,05,13,46,26.10
2019,08,05,13,47,26.10
2019,08,05,13,48,26.10
2019,08,05,13,49,26.00
2019,08,05,13,50,26.00
2019,08,05,13,51,25.90
2019,08,05,13,52,26.00
2019,08,05,13,53,26.00
2019,08,05,13,54,26.10
2019,08,05,13,55,26.10
2019,08,05,13,56,26.00
2019,08,05,13,57,26.00
2019,08,05,13,58,25.90
2019,08,05,13,59,26.10
2019,08,05,14,00,26.20
2019,08,05,14,01,26.30
2019,08,05,14,02,26.30
2019,08,05,14,03,26.20
2019,08,05,14,04,26.20
2019,08,05,14,05,26.10
2019,08,05,14,06,26.10
2019,08,05,14,07,26.10
2019,08,05,14,08,26.20
2019,08,05,14,09,26.20
2019,08,05,14,10,26.20
2019,08,05,14,11,26.30
2019,08,05,14,12,26.30
2019,08,05,14,13,26.40
2019,08,05,14,14,26.40
2019,08,05,14,15,26.60
2019,08,05,14,16,26.60
2019,08,05,14,17,26.70
2019,08,05,14,18,26.80
2019,08,05,14,19,26.90
2019,08,05,14,20,27.10
2019,08,05,14,21,27.20
2019,08,05,14,22,27.30
2019,08,05,14,23,27.30
2019,08,05,14,24,27.30
2019,08,05,14,25,27.30
2019,08,05,14,26,27.20
2019,08,05,14,27,27.20
2019,08,05,14,28,27.10
2019,08,05,14,29,27.10
2019,08,05,14,30,27.10
2019,08,05,14,31,27.10
2019,08,05,14,32,27.20
2019,08,05,14,33,27.30
2019,08,05,14,34,27.40
2019,08,05,14,35,27.40
2019,08,05,14,36,27.40
2019,08,05,14,37,27.30
2019,08,05,14,38,27.30
2019,08,05,14,39,27.10
2019,08,05,14,40,27.00
2019,08,05,14,41,27.00
2019,08,05,14,42,26.90
2019,08,05,14,43,26.80
2019,08,05,14,44,26.90
2019,08,05,14,45,27.00
2019,08,05,14,46,27.10
2019,08,05,14,47,27.10
2019,08,05,14,48,27.10
2019,08,05,14,49,27.20
2019,08,05,14,50,27.20
2019,08,05,14,51,27.20
2019,08,05,14,52,27.20
2019,08,05,14,53,27.20
2019,08,05,14,54,27.20
2019,08,05,14,55,27.30
2019,08,05,14,56,27.30
2019,08,05,14,57,27.40
2019,08,05,14,58,27.40
2019,08,05,14,59,27.40
2019,08,05,15,00,27.40
2019,08,05,15,01,27.50
2019,08,05,15,02,27.40
2019,08,05,15,03,27.40
2019,08,05,15,04,27.50
2019,08,05,15,05,27.60
2019,08,05,15,06,27.60
2019,08,05,15,07,27.70
2019,08,05,15,08,27.80
2019,08,05,15,09,27.80
2019,08,05,15,10,27.90
2019,08,05,15,11,27.80
2019,08,05,15,12,27.80
2019,08,05,15,13,27.70
2019,08,05,15,14,27.60
2019,08,05,15,15,27.60
2019,08,05,15,16,27.60
2019,08,05,15,17,27.60
2019,08,05,15,18,27.50
2019,08,05,15,19,27.40
2019,08,05,15,20,27.40
2019,08,05,15,21,27.40
2019,08,05,15,22,27.40
2019,08,05,15,23,27.30
2019,08,05,15,24,27.30
2019,08,05,15,25,27.30
2019,08,05,15,26,27.30
2019,08,05,15,27,27.40
2019,08,05,15,28,27.60
2019,08,05,15,29,27.70
2019,08,05,15,30,27.90
2019,08,05,15,31,28.00
2019,08,05,15,32,28.20
2019,08,05,15,33,28.30
2019,08,05,15,34,28.30
2019,08,05,15,35,28.20
2019,08,05,15,36,28.20
2019,08,05,15,37,28.20
2019,08,05,15,38,28.20
2019,08,05,15,39,28.20
2019,08,05,15,40,28.10
2019,08,05,15,41,28.10
2019,08,05,15,42,28.10
2019,08,05,15,43,28.10
2019,08,05,15,44,28.10
2019,08,05,15,45,28.20
2019,08,05,15,46,28.30
2019,08,05,15,47,28.30
2019,08,05,15,48,28.40
2019,08,05,15,49,28.50
2019,08,05,15,50,28.60
2019,08,05,15,51,28.50
2019,08,05,15,52,28.40
2019,08,05,15,53,28.30
2019,08,05,15,54,28.30
2019,08,05,15,55,28.40
2019,08,05,15,56,28.40
2019,08,05,15,57,28.40
2019,08,05,15,58,28.40
2019,08,05,15,59,28.30
2019,08,05,16,00,28.20
2019,08,05,16,01,28.20
2019,08,05,16,02,28.20
2019,08,05,16,03,28.10
2019,08,05,16,04,28.00
2019,08,05,16,05,28.00
2019,08,05,16,06,27.90
2019,08,05,16,07,27.90
2019,08,05,16,08,27.80
2019,08,05,16,09,27.80
2019,08,05,16,10,27.70
2019,08,05,16,11,27.70
2019,08,05,16,12,27.80
2019,08,05,16,13,27.90
2019,08,05,16,14,28.10
2019,08,05,16,15,28.20
2019,08,05,16,16,28.30
2019,08,05,16,17,28.30
2019,08,05,16,18,28.40
2019,08,05,16,19,28.50
2019,08,05,16,20,28.60
2019,08,05,16,21,28.80
2019,08,05,16,22,28.90
2019,08,05,16,23,29.00
2019,08,05,16,24,29.10
2019,08,05,16,25,29.10
2019,08,05,16,26,29.10
2019,08,05,16,27,29.20
2019,08,05,16,28,29.30
2019,08,05,16,29,29.40
2019,08,05,16,30,29.40
2019,08,05,16,31,29.40
2019,08,05,16,32,29.40
2019,08,05,16,33,29.40
2019,08,05,16,34,29.50
2019,08,05,16,35,29.50
2019,08,05,16,36,29.50
2019,08,05,16,37,29.60
2019,08,05,16,38,29.60
2019,08,05,16,39,29.60
2019,08,05,16,40,29.50
2019,08,05,16,41,29.50
2019,08,05,16,42,29.50
2019,08,05,16,43,29.60
2019,08,05,16,44,29.60
2019,08,05,16,45,29.70
2019,08,05,16,46,29.80
2019,08,05,16,47,29.80
2019,08,05,16,48,29.80
2019,08,05,16,49,29.70
2019,08,05,16,50,29.60
2019,08,05,16,51,29.60
2019,08,05,16,52,29.60
2019,08,05,16,53,29.60
2019,08,05,16,54,29.60
2019,08,05,16,55,29.70
2019,08,05,16,56,29.80
2019,08,05,16,57,29.80
2019,08,05,16,58,29.80
2019,08,05,16,59,29.90
2019,08,05,17,00,29.90
2019,08,05,17,01,29.90
2019,08,05,17,02,29.90
2019,08,05,17,03,29.80
2019,08,05,17,04,29.80
2019,08,05,17,05,29.70
2019,08,05,17,06,29.60
2019,08,05,17,07,29.50
2019,08,05,17,08,29.50
2019,08,05,17,09,29.60
2019,08,05,17,10,29.60
2019,08,05,17,11,29.70
2019,08,05,17,12,29.70
2019,08,05,17,13,29.70
2019,08,05,17,14,29.80
2019,08,05,17,15,29.80
2019,08,05,17,16,29.90
2019,08,05,17,17,30.00
2019,08,05,17,18,30.00
2019,08,05,17,19,29.90